Simultaneous Nadir Overpasses (SNOs) Predictions

Prediction of SNOs between METOP-C and LANDSAT-8 Satellite Orbit:

Table of predicted SNOs for the next 14.0 days since TLE Epoch: 6/29/2024
Index Date (METOP-C) Time (METOP-C) Lat,Lon (METOP-C) SZA (METOP-C ) Date (LANDSAT-8) Time (LANDSAT-8) Lat,Lon (LANDSAT-8) SZA (LANDSAT-8 ) Distance(km) Time Diff (sec)
1 06/30/2024 23:46:35 -81.09, 42.78 119.97 06/30/2024 23:47:12 -81.09, 42.60 119.98 3.25 37
2 07/01/2024 00:37:14 81.11,-149.45 60.09 07/01/2024 00:36:37 81.12,-149.30 60.10 2.72 37
3 07/03/2024 19:21:00 -81.08, 108.78 119.82 07/03/2024 19:21:27 -81.08, 108.89 119.80 2.01 27
4 07/03/2024 20:11:38 81.10, -83.14 60.29 07/03/2024 20:10:52 81.10, -83.03 60.28 1.79 46
5 07/06/2024 14:55:21 -81.10, 175.77 119.48 07/06/2024 14:55:39 -81.09, 175.61 119.50 2.87 18
6 07/06/2024 15:45:59 81.12, -16.19 60.62 07/06/2024 15:45:04 81.12, -16.34 60.57 2.65 55
7 07/09/2024 10:29:45 -81.09,-118.11 119.21 07/09/2024 10:29:52 -81.09,-117.98 119.19 2.13 7
8 07/09/2024 11:20:23 81.11, 49.89 60.89 07/09/2024 11:19:17 81.12, 50.05 60.88 2.71 66
9 07/12/2024 05:13:27 81.07, 140.60 61.11 07/12/2024 05:14:38 81.07, 140.49 61.12 1.97 71



Historial Predications of SNOs between METOP-C and LANDSAT-8
